Date,TemperatureHighF,TemperatureAvgF,TemperatureLowF,DewpointHighF,DewpointAvgF,DewpointLowF,HumidityHigh,HumidityAvg,HumidityLow,PressureMaxIn,PressureMinIn,WindSpeedMaxMPH,WindSpeedAvgMPH,GustSpeedMaxMPH,PrecipitationSumIn
2013-7-5,92.0,78.6,71.4,78.3,72.4,68.5,100,84,48,29.66,29.62,13,2,16,0.14
2013-7-6,87.5,77.1,67.0,79.7,69.7,63.5,100,81,47,29.67,29.57,14,2,14,0.04
2013-7-7,89.7,74.3,63.3,74.3,69.0,63.5,100,85,55,29.64,29.48,7,1,8,0.05
2013-7-8,81.5,72.0,68.9,80.3,71.3,69.0,100,98,76,29.65,29.52,14,2,14,0.39
2013-7-9,84.3,73.2,66.4,77.7,69.3,66.3,100,88,63,29.69,29.60,13,2,13,0.01
2013-7-10,77.5,71.7,68.3,76.8,70.3,66.7,100,96,88,29.63,29.35,11,2,11,0.77
2013-7-11,82.2,73.1,62.6,75.5,67.4,60.5,100,84,50,29.60,29.33,16,3,18,0.01
2013-7-12,86.3,69.8,56.7,66.3,60.5,56.5,100,76,41,29.80,29.59,8,2,8,0.00
2013-7-13,81.0,70.0,59.3,69.0,64.2,59.5,100,83,56,29.90,29.80,14,2,16,0.00
2013-7-14,88.3,75.2,66.7,73.0,69.7,66.7,100,85,56,29.91,29.79,10,2,11,0.00
2013-7-15,92.4,77.9,66.7,76.8,67.8,63.0,100,75,41,29.83,29.69,17,2,17,0.00
2013-7-16,89.5,77.4,64.9,72.3,67.3,64.0,100,74,47,29.79,29.72,9,2,9,0.00
2013-7-17,94.3,79.2,64.7,73.0,68.7,64.0,100,75,41,29.80,29.56,9,2,9,0.00
2013-7-18,92.3,76.5,69.8,74.0,70.9,69.0,100,86,49,29.63,29.52,9,2,9,0.02
2013-7-19,92.3,80.3,69.9,77.0,71.6,69.0,100,79,49,29.54,29.26,9,4,9,0.00
2013-7-22,78.1,72.9,62.6,69.0,64.3,57.0,89,75,70,29.64,29.51,9,3,9,0.00
2013-7-24,78.1,66.6,54.2,72.0,57.0,47.0,100,72,59,29.64,29.26,9,4,9,0.00
2013-7-25,74.6,61.4,47.9,60.0,52.1,46.0,97,74,50,29.72,29.61,9,2,9,0.00
2013-7-26,73.9,64.3,58.2,63.0,59.4,57.0,97,86,67,29.70,29.57,9,2,9,0.00
2013-7-27,83.8,67.8,54.5,66.0,59.9,54.0,100,80,45,29.67,29.54,9,2,9,0.00
2013-7-28,80.8,67.1,59.3,69.0,63.0,59.0,100,89,59,29.62,29.54,8,1,8,0.00